Weather History for Quillayute, WA

Change the Weather History Date:

Monday, March 18, 2013

  Actual Average Record
Temperature  
Mean Temperature 43 °F 44 °F  
Max Temperature 51 °F 52 °F 68 °F (1996)
Min Temperature 34 °F 37 °F 25 °F (1971)
Degree Days  
Heating Degree Days 22 21  
Month to date heating degree days 364 386  
Since 1 July heating degree days 4057 4231  
Cooling Degree Days 0 0  
Month to date cooling degree days 0 0  
Year to date cooling degree days 0 0  
Moisture  
Dew Point 36 °F    
Average Humidity 70    
Maximum Humidity 89    
Minimum Humidity 50    
Precipitation  
Precipitation 0.21 in 0.35 in 3.67 in (1997)
Month to date precipitation 14.17 6.46  
Year to date precipitation 36.28 31.42  
Sea Level Pressure  
Sea Level Pressure 30.18 in    
Wind  
Wind Speed 6 mph (West)    
Max Wind Speed 20 mph    
Max Gust Speed 29 mph    
Visibility 4 miles    
Events Rain    
T = Trace of Precipitation, MM = Missing Value Source: NWS Daily Summary

Daily Weather History Graph

Daily Weather History Graph

Search for Another Location

Airport:

Trip Planner

Search our weather history database for the weather conditions in past years. The results will help you decide how hot, cold, wet, or windy it might be!

Date:

Astronomy

Mar. 18, 2013 Rise Set
Actual Time 7:24 AM PDT 7:28 PM PDT
Civil Twilight 6:53 AM PDT 7:59 PM PDT
Nautical Twilight 6:17 AM PDT 8:35 PM PDT
Astronomical Twilight 5:40 AM PDT 9:13 PM PDT
Moon 11:03 AM PDT (3/18) 1:57 AM PDT (3/18)
Length of Visible Light 13h 05m
Length of Day
12h 04m
Waxing Crescent, 41% of the Moon is Illuminated
Mar 18
Waxing Crescent
Mar 19
First Quarter
Mar 27
Full
Apr 2
Last Quarter
Apr 10
New

Hourly Weather History & Observations

Time (PDT) Temp. Windchill Dew Point Humidity Pressure Visibility Wind Dir Wind Speed Gust Speed Precip Events Conditions
12:11 AM 42.8 °F 40.1 °F 37.4 °F 81% 30.17 in 5.0 mi SSW 4.6 mph - N/A   Haze
12:28 AM 42.8 °F 39.3 °F 37.4 °F 81% 30.16 in 5.0 mi SSW 5.8 mph - N/A   Haze
12:49 AM 42.8 °F 37.5 °F 37.4 °F 81% 30.16 in 4.0 mi SSW 9.2 mph - 0.00 in Rain Light Rain
12:53 AM 43.0 °F 37.7 °F 37.0 °F 80% 30.16 in 3.0 mi SW 9.2 mph - 0.00 in Rain Light Rain
1:53 AM 44.1 °F 39.0 °F 37.0 °F 76% 30.14 in 5.0 mi SW 9.2 mph 18.4 mph 0.01 in Rain Light Rain
2:19 AM 44.6 °F 38.8 °F 39.2 °F 81% 30.14 in 1.8 mi SW 11.5 mph - 0.01 in Rain Light Rain
2:34 AM 44.6 °F 39.2 °F 39.2 °F 81% 30.14 in 3.0 mi SW 10.4 mph 20.7 mph 0.05 in Rain Light Rain
2:43 AM 44.6 °F 39.2 °F 39.2 °F 81% 30.14 in 2.5 mi WSW 10.4 mph - 0.06 in Rain Light Rain
2:53 AM 44.1 °F 37.1 °F 39.0 °F 82% 30.14 in 2.5 mi WSW 15.0 mph 24.2 mph 0.07 in Rain Light Rain
3:05 AM 44.6 °F 39.7 °F 39.2 °F 81% 30.13 in 2.5 mi SW 9.2 mph - 0.02 in Rain Light Rain
3:09 AM 44.6 °F 37.8 °F 39.2 °F 81% 30.13 in 2.0 mi WSW 15.0 mph 20.7 mph 0.03 in Rain Rain
3:29 AM 44.6 °F 36.6 °F 39.2 °F 81% 30.13 in 4.0 mi WSW 19.6 mph 28.8 mph 0.05 in Rain Light Rain
3:41 AM 44.6 °F 37.8 °F 39.2 °F 81% 30.13 in 2.5 mi West 15.0 mph 23.0 mph 0.05 in Rain Light Rain
3:43 AM 44.6 °F 37.4 °F 39.2 °F 81% 30.13 in 1.8 mi West 16.1 mph 23.0 mph 0.06 in Rain Heavy Rain
3:46 AM 44.6 °F 37.4 °F 39.2 °F 81% 30.13 in 1.5 mi West 16.1 mph 21.9 mph 0.09 in Rain Rain
3:53 AM 44.1 °F 37.4 °F 39.9 °F 85% 30.13 in 3.0 mi West 13.8 mph 20.7 mph 0.09 in Rain Light Rain
4:00 AM 44.6 °F 39.2 °F 39.2 °F 81% 30.14 in 2.5 mi WNW 10.4 mph 19.6 mph 0.00 in Rain Light Rain
4:06 AM 42.8 °F 37.0 °F 37.4 °F 81% 30.14 in 1.2 mi West 10.4 mph - 0.03 in Rain Rain
4:11 AM 42.8 °F 36.2 °F 37.4 °F 81% 30.14 in 2.0 mi West 12.7 mph - 0.03 in Rain Light Rain
4:19 AM 42.8 °F 36.2 °F 37.4 °F 81% 30.14 in 6.0 mi West 12.7 mph - 0.03 in   Haze
4:53 AM 44.1 °F 39.0 °F 39.0 °F 82% 30.14 in 3.0 mi West 9.2 mph - 0.04 in Rain Light Rain
5:03 AM 44.6 °F 39.2 °F 37.4 °F 76% 30.14 in 5.0 mi West 10.4 mph - 0.00 in   Haze
5:53 AM 43.0 °F 37.2 °F 37.9 °F 82% 30.15 in 4.0 mi WNW 10.4 mph 19.6 mph 0.00 in   Haze
6:05 AM 42.8 °F 38.6 °F 37.4 °F 81% 30.15 in 5.0 mi WNW 6.9 mph 16.1 mph N/A   Haze
6:14 AM 42.8 °F 39.3 °F 35.6 °F 76% 30.15 in 5.0 mi WNW 5.8 mph - N/A   Haze
6:53 AM 39.9 °F - 35.1 °F 83% 30.17 in 5.0 mi Calm Calm - N/A   Haze
7:53 AM 39.0 °F - 35.1 °F 86% 30.19 in 3.0 mi Calm Calm - N/A   Scattered Clouds
8:53 AM 44.1 °F - 35.1 °F 71% 30.20 in 4.0 mi Calm Calm - N/A   Haze
9:53 AM 46.0 °F 43.9 °F 36.0 °F 68% 30.21 in 4.0 mi West 4.6 mph - N/A   Haze
10:53 AM 46.0 °F 43.1 °F 35.1 °F 66% 30.22 in 4.0 mi NW 5.8 mph - 0.00 in   Haze
11:42 AM 48.2 °F - 35.6 °F 62% 30.22 in 4.0 mi West 8.1 mph - N/A   Haze
11:53 AM 48.0 °F - 35.1 °F 61% 30.23 in 4.0 mi Variable 5.8 mph - N/A   Haze
12:19 PM 46.4 °F 42.4 °F 33.8 °F 62% 30.23 in 4.0 mi NW 8.1 mph - N/A   Haze
12:53 PM 46.9 °F - 35.1 °F 63% 30.24 in 4.0 mi WNW 8.1 mph - N/A   Haze
1:53 PM 48.9 °F - 30.9 °F 50% 30.25 in 4.0 mi NW 10.4 mph - N/A   Haze
2:53 PM 50.0 °F - 35.1 °F 57% 30.25 in 4.0 mi WNW 9.2 mph 18.4 mph N/A   Haze
3:53 PM 50.0 °F - 33.1 °F 52% 30.25 in 4.0 mi Variable 6.9 mph - N/A   Haze
4:53 PM 48.9 °F - 33.1 °F 54% 30.26 in 4.0 mi West 6.9 mph - N/A   Haze
5:53 PM 48.0 °F - 30.9 °F 52% 30.26 in 4.0 mi Variable 5.8 mph - N/A   Haze
6:53 PM 44.1 °F 41.5 °F 30.9 °F 60% 30.25 in 4.0 mi West 4.6 mph - N/A   Haze
7:53 PM 39.0 °F - 33.1 °F 79% 30.24 in 5.0 mi Calm Calm - N/A   Haze
8:53 PM 37.0 °F - 33.1 °F 86% 30.24 in 5.0 mi Calm Calm - N/A   Clear
9:53 PM 35.1 °F 31.0 °F 30.9 °F 85% 30.24 in 5.0 mi NE 4.6 mph - N/A   Clear
10:53 PM 34.0 °F 29.8 °F 30.0 °F 85% 30.23 in 5.0 mi ENE 4.6 mph - N/A   Clear
11:53 PM 34.0 °F - 30.0 °F 85% 30.21 in 4.0 mi Calm Calm - N/A   Clear